{"data":{"norad_id":49079,"intl_designator":"2021-075E","name":"ONEWEB-0289","alt_names":[],"object_type":"PAYLOAD","status":"ACTIVE","operator":null,"country":"UK","launch_date":"2021-08-21","launch_site_code":"TYMSC","launch_vehicle":null,"mission":null,"orbit_class":"UNKNOWN","rcs_meters":null,"size_class":null,"mass_kg":null,"dimensions":null,"purposes":["comms"],"wikipedia_slug":null,"has_3d_model":false,"image_url":null,"decayed_at":null,"tle_current":{"epoch":"2026-05-25T02:53:50.456832Z","epoch_age_seconds":74738,"freshness":"FRESH","line1":"1 49079U 21075E   26145.12072288 -.00000139  00000+0 -39211-3 0  9995","line2":"2 49079  87.9158  10.4690 0001456  90.1385 269.9913 13.17649067231167","mean_motion":13.17649067,"eccentricity":0.0001456,"inclination_deg":87.9158,"raan_deg":10.469,"arg_perigee_deg":90.1385,"mean_anomaly_deg":269.9913,"bstar":-0.00039211,"rev_number":23116,"period_min":109.28554772771,"perigee_km":1192.6105418269,"apogee_km":1194.8154645478,"semimajor_km":7571.8500031874,"source":"CELESTRAK","updated_at":"2026-05-25T13:38:22.481343Z"}}}